• In Uzbekistan
  • List of Countries
  • For 7 days
  • Water Temperature
  • Satellite Maps
  • Weather Map
  • Weather Widgets
  • user-avatar
    Login

    Hourly Weather Bad Neustadt an der Saale

    Today, 23 May, Wednesday

    Time Temperature Precipitation Wind Pressure Humidity
    00:00 +15°C° 0.5 mm 2 mps 740 mmHg 88%
    01:00 +14°C° 0.5 mm 1 mps 740 mmHg 90%
    02:00 +14°C° 0.4 mm 1 mps 740 mmHg 91%
    03:00 +14°C° 0.4 mm 1 mps 741 mmHg 91%
    04:00 +14°C° 0.4 mm 1 mps 741 mmHg 91%
    05:00 +15°C° 0.1 mm 1 mps 741 mmHg 89%
    06:00 +16°C° 0.1 mm 1 mps 742 mmHg 86%
    07:00 +17°C° 0.1 mm 2 mps 742 mmHg 83%
    08:00 +19°C° 0 mm 2 mps 742 mmHg 76%
    09:00 +20°C° 0 mm 3 mps 742 mmHg 69%
    10:00 +22°C° 0 mm 4 mps 743 mmHg 62%
    11:00 +22°C° 0.5 mm 4 mps 743 mmHg 65%
    12:00 +23°C° 0.5 mm 4 mps 743 mmHg 67%
    13:00 +23°C° 0.5 mm 4 mps 743 mmHg 70%
    14:00 +22°C° 0.9 mm 4 mps 742 mmHg 74%
    15:00 +22°C° 0.9 mm 5 mps 742 mmHg 78%
    16:00 +21°C° 0.9 mm 5 mps 742 mmHg 81%
    17:00 +20°C° 0.4 mm 4 mps 742 mmHg 83%
    18:00 +20°C° 0.4 mm 4 mps 742 mmHg 85%
    19:00 +19°C° 0.4 mm 4 mps 742 mmHg 87%
    20:00 +18°C° 0.2 mm 4 mps 743 mmHg 89%
    21:00 +17°C° 0.2 mm 4 mps 743 mmHg 90%
    22:00 +17°C° 0.2 mm 4 mps 743 mmHg 91%
    23:00 +17°C° 0.3 mm 3 mps 743 mmHg 92%

    Tomorrow, 24 May, Thursday

    Time Temperature Precipitation Wind Pressure Humidity
    00:00 +16°C° 0.3 mm 3 mps 743 mmHg 94%
    01:00 +16°C° 0.3 mm 3 mps 743 mmHg 95%
    02:00 +16°C° 0.5 mm 3 mps 743 mmHg 95%
    03:00 +16°C° 0.5 mm 3 mps 743 mmHg 96%
    04:00 +16°C° 0.5 mm 3 mps 743 mmHg 96%
    05:00 +16°C° 0.4 mm 3 mps 743 mmHg 95%
    06:00 +17°C° 0.4 mm 3 mps 743 mmHg 93%
    07:00 +18°C° 0.4 mm 3 mps 744 mmHg 92%
    08:00 +19°C° 0.1 mm 3 mps 744 mmHg 88%
    09:00 +20°C° 0.1 mm 3 mps 744 mmHg 83%
    10:00 +21°C° 0.1 mm 3 mps 744 mmHg 79%
    11:00 +22°C° 0.6 mm 3 mps 744 mmHg 78%
    12:00 +22°C° 0.6 mm 3 mps 744 mmHg 77%
    13:00 +24°C° 0.6 mm 3 mps 743 mmHg 77%
    14:00 +23°C° 0.9 mm 4 mps 743 mmHg 79%
    15:00 +22°C° 0.9 mm 4 mps 743 mmHg 81%
    16:00 +22°C° 0.9 mm 4 mps 743 mmHg 83%
    17:00 +22°C° 0.6 mm 4 mps 743 mmHg 85%
    18:00 +21°C° 0.6 mm 3 mps 743 mmHg 87%
    19:00 +20°C° 0.6 mm 3 mps 743 mmHg 89%
    20:00 +19°C° 0.5 mm 3 mps 743 mmHg 91%
    21:00 +18°C° 0.5 mm 3 mps 743 mmHg 92%
    22:00 +18°C° 0.5 mm 3 mps 743 mmHg 93%
    23:00 +17°C° 0.2 mm 2 mps 743 mmHg 94%

    Day after tomorrow, 25 May, Friday

    Time Temperature Precipitation Wind Pressure Humidity
    00:00 +17°C° 0.2 mm 2 mps 743 mmHg 95%
    01:00 +16°C° 0.2 mm 2 mps 743 mmHg 95%
    02:00 +16°C° 0.1 mm 2 mps 743 mmHg 96%
    03:00 +16°C° 0.1 mm 2 mps 743 mmHg 96%
    04:00 +15°C° 0.1 mm 2 mps 743 mmHg 96%
    05:00 +16°C° 0.2 mm 2 mps 743 mmHg 95%
    06:00 +17°C° 0.2 mm 2 mps 744 mmHg 93%
    07:00 +18°C° 0.2 mm 2 mps 744 mmHg 91%
    08:00 +19°C° 0.3 mm 2 mps 744 mmHg 86%
    09:00 +21°C° 0.3 mm 2 mps 744 mmHg 82%
    10:00 +23°C° 0.3 mm 2 mps 744 mmHg 77%
    11:00 +24°C° 1.2 mm 2 mps 744 mmHg 76%
    12:00 +24°C° 1.2 mm 3 mps 744 mmHg 75%
    13:00 +25°C° 1.2 mm 3 mps 744 mmHg 74%
    14:00 +25°C° 1.2 mm 3 mps 743 mmHg 74%
    15:00 +25°C° 1.2 mm 2 mps 743 mmHg 75%
    16:00 +25°C° 1.2 mm 2 mps 743 mmHg 75%
    17:00 +24°C° 0.4 mm 2 mps 743 mmHg 78%
    18:00 +23°C° 0.4 mm 2 mps 743 mmHg 81%
    19:00 +21°C° 0.4 mm 2 mps 743 mmHg 84%
    20:00 +20°C° 0 mm 2 mps 743 mmHg 86%
    21:00 +19°C° 0 mm 2 mps 744 mmHg 88%
    22:00 +17°C° 0 mm 2 mps 744 mmHg 89%
    23:00 +17°C° 0 mm 2 mps 744 mmHg 90%

    26 May, Saturday

    Time Temperature Precipitation Wind Pressure Humidity
    00:00 +16°C° 0 mm 2 mps 744 mmHg 90%
    01:00 +16°C° 0 mm 1 mps 744 mmHg 90%
    02:00 +15°C° 0 mm 1 mps 744 mmHg 91%
    03:00 +15°C° 0 mm 1 mps 744 mmHg 91%
    04:00 +15°C° 0 mm 1 mps 744 mmHg 92%
    05:00 +16°C° 0 mm 2 mps 745 mmHg 89%
    06:00 +17°C° 0 mm 2 mps 745 mmHg 86%
    07:00 +18°C° 0 mm 2 mps 745 mmHg 83%
    08:00 +20°C° 0 mm 2 mps 745 mmHg 76%
    09:00 +22°C° 0 mm 3 mps 745 mmHg 68%
    10:00 +25°C° 0 mm 3 mps 746 mmHg 60%
    11:00 +26°C° 0 mm 3 mps 745 mmHg 57%
    12:00 +27°C° 0 mm 3 mps 745 mmHg 54%
    13:00 +28°C° 0 mm 3 mps 745 mmHg 51%
    14:00 +28°C° 0 mm 3 mps 745 mmHg 51%
    15:00 +28°C° 0 mm 3 mps 745 mmHg 52%
    16:00 +28°C° 0 mm 3 mps 745 mmHg 53%
    17:00 +27°C° 0 mm 3 mps 745 mmHg 59%
    18:00 +25°C° 0 mm 3 mps 745 mmHg 66%
    19:00 +24°C° 0 mm 3 mps 745 mmHg 72%
    20:00 +21°C° 0 mm 3 mps 745 mmHg 75%
    21:00 +20°C° 0 mm 3 mps 746 mmHg 78%
    22:00 +19°C° 0 mm 3 mps 746 mmHg 80%
    23:00 +18°C° 0 mm 3 mps 746 mmHg 81%

    27 May, Sunday

    Time Temperature Precipitation Wind Pressure Humidity
    00:00 +17°C° 0 mm 3 mps 746 mmHg 83%
    01:00 +17°C° 0 mm 2 mps 746 mmHg 84%
    02:00 +16°C° 0 mm 2 mps 746 mmHg 85%
    03:00 +16°C° 0 mm 2 mps 745 mmHg 87%
    04:00 +15°C° 0 mm 2 mps 745 mmHg 88%
    05:00 +16°C° 0 mm 2 mps 745 mmHg 84%
    06:00 +18°C° 0 mm 2 mps 745 mmHg 79%
    07:00 +19°C° 0 mm 2 mps 745 mmHg 75%
    08:00 +21°C° 0 mm 3 mps 745 mmHg 69%
    09:00 +24°C° 0 mm 3 mps 745 mmHg 64%
    10:00 +26°C° 0 mm 3 mps 745 mmHg 58%
    11:00 +27°C° 0 mm 3 mps 745 mmHg 55%
    12:00 +28°C° 0 mm 2 mps 745 mmHg 51%
    13:00 +29°C° 0 mm 2 mps 745 mmHg 48%
    14:00 +29°C° 0 mm 2 mps 744 mmHg 49%
    15:00 +29°C° 0 mm 2 mps 744 mmHg 50%
    16:00 +29°C° 0 mm 3 mps 744 mmHg 52%
    17:00 +27°C° 0 mm 3 mps 743 mmHg 59%
    18:00 +26°C° 0 mm 3 mps 743 mmHg 66%
    19:00 +24°C° 0 mm 3 mps 743 mmHg 74%
    20:00 +22°C° 0 mm 3 mps 743 mmHg 78%
    21:00 +20°C° 0 mm 3 mps 743 mmHg 81%
    22:00 +19°C° 0 mm 3 mps 743 mmHg 85%
    23:00 +18°C° 0 mm 2 mps 743 mmHg 87%

    28 May, Monday

    Time Temperature Precipitation Wind Pressure Humidity
    00:00 +18°C° 0 mm 2 mps 743 mmHg 89%
    01:00 +17°C° 0 mm 2 mps 743 mmHg 92%
    02:00 +18°C° 0 mm 1 mps 743 mmHg 92%
    03:00 +18°C° 0 mm 1 mps 742 mmHg 93%
    04:00 +16°C° 0 mm 1 mps 742 mmHg 94%
    05:00 +19°C° 0 mm 1 mps 742 mmHg 90%
    06:00 +20°C° 0 mm 1 mps 743 mmHg 86%
    07:00 +22°C° 0 mm 1 mps 743 mmHg 81%
    08:00 +24°C° 0 mm 2 mps 743 mmHg 75%
    09:00 +26°C° 0 mm 2 mps 743 mmHg 68%
    10:00 +27°C° 0 mm 2 mps 743 mmHg 62%
    11:00 +28°C° 0 mm 2 mps 742 mmHg 57%
    12:00 +30°C° 0 mm 2 mps 742 mmHg 53%
    13:00 +31°C° 0 mm 2 mps 742 mmHg 49%
    14:00 +31°C° 0.1 mm 2 mps 741 mmHg 50%
    15:00 +31°C° 0.1 mm 2 mps 741 mmHg 50%
    16:00 +31°C° 0.1 mm 2 mps 740 mmHg 51%
    17:00 +29°C° 0.1 mm 2 mps 740 mmHg 59%
    18:00 +28°C° 0.1 mm 2 mps 740 mmHg 67%
    19:00 +26°C° 0.1 mm 3 mps 740 mmHg 75%
    20:00 +25°C° 0 mm 3 mps 740 mmHg 79%
    21:00 +24°C° 0 mm 2 mps 740 mmHg 83%
    22:00 +21°C° 0 mm 2 mps 740 mmHg 87%
    23:00 +21°C° 0 mm 2 mps 740 mmHg 88%
    Show more